Regional Weather Roundup
Issued by NWS

Home | Current Version | Previous Version | Graphics & Text | Print | Product List | Glossary On
Versions: 1 2 3 4 5 6 7 8 9 10 11 12 13 14 15 16 17 18 19 20 21 22 23 24 25 26 27 28 29 30 31 32 33 34 35 36 37 38 39 40 41 42 43 44 45 46 47 48 49 50
000
ASUS43 KFSD 292002
RWRSD

WEATHER ROUNDUP FOR SOUTH DAKOTA
NATIONAL WEATHER SERVICE SIOUX FALLS SD
300 PM CDT MON AUG 29 2016

NOTE: "FAIR" INDICATES FEW OR NO CLOUDS BELOW 12,000 FEET WITH NO
SIGNIFICANT WEATHER AND/OR OBSTRUCTIONS TO VISIBILITY.


SDZ001>005-009-010-012>017-292100-
NORTHWEST AND NORTH CENTRAL SOUTH DAKOTA

CITY           SKY/WX    TMP DP  RH WIND       PRES   REMARKS
BUFFALO          N/A     81  48  31 E15       30.22F
FAITH            N/A     81  50  33 NE22      30.23S
MOBRIDGE       SUNNY     86  55  34 N14G23    30.17S
$$

SDZ012>016-024>037-041>051-057-063-072>074-292100-
SOUTHWEST AND SOUTH CENTRAL SOUTH DAKOTA

CITY           SKY/WX    TMP DP  RH WIND       PRES   REMARKS
RAPID CTY ARPT SUNNY     82  56  40 NE10      30.26F
PIERRE         SUNNY     89  64  43 NE10      30.13S
CUSTER         SUNNY     75  49  39 NE15G26   30.38S
ELLSWORTH AFB  SUNNY     81  55  41 NE9       30.26F
PHILIP         SUNNY     86  65  49 NE16      30.17S
PINE RIDGE     SUNNY     83  59  44 N7        30.23F
WINNER         FAIR      92  63  38 S8        30.15S
$$

SDZ004>011-016>023-039-040-292100-
NORTHEAST SOUTH DAKOTA

CITY           SKY/WX    TMP DP  RH WIND       PRES   REMARKS
ABERDEEN       SUNNY     83  69  62 VRB7      30.15F
WATERTOWN      SUNNY     88  69  53 SW14      30.15S
SISSETON         N/A     85  72  65 E5        30.13S
$$

SDZ017-020-022-023-036>040-048>070-292100-
SOUTHEAST SOUTH DAKOTA

CITY           SKY/WX    TMP DP  RH WIND       PRES   REMARKS
SIOUX FALLS    CLOUDY    84  71  65 S10       30.16F
HURON          SUNNY     89  66  46 S14G21    30.11F
CHAMBERLAIN    PTSUNNY   93  68  43 SE6       30.13F HX  97
MITCHELL       PTSUNNY   88  69  53 S12       30.14S
YANKTON        CLOUDY    82  64  54 SE3       30.15F
$$

ABBREVIATIONS USED IN REMARKS
   TC - TEMPERATURE IN CELSIUS
  WCI - WIND CHILL INDEX
   HX - HEAT INDEX
  VSB - VISIBILITY




USA.gov is the U.S. government's official web portal to all federal, state and local government web resources and services.